This is the latest recevied weather packets stored in our database for station/object KC1DMA. If no packets are shown the sender has not sent any weather packets the latest 1 day(s).
| Time | Temp. | Humidity | Pressure | Rain* | Wind** | Luminosity | Snow |
|---|---|---|---|---|---|---|---|
| 1778045226 | 15° C | 81% | 1012.7 hPa | - | 1.79 m/s, 124° | 0 W/m² | - |
| 1778044923 | 15° C | 81% | 1012.7 hPa | - | 2.24 m/s, 108° | 0 W/m² | - |
| 1778044620 | 15° C | 81% | 1012.8 hPa | - | 1.34 m/s, 110° | 0 W/m² | - |
| 1778044316 | 15° C | 80% | 1012.9 hPa | - | 1.34 m/s, 156° | 0 W/m² | - |
| 1778044015 | 15° C | 80% | 1012.7 hPa | - | 1.79 m/s, 101° | 0 W/m² | - |
| 1778043711 | 15.56° C | 80% | 1012.6 hPa | - | 2.24 m/s, 145° | 0 W/m² | - |
| 1778043408 | 15.56° C | 80% | 1012.8 hPa | - | 1.34 m/s, 181° | 0 W/m² | - |
| 1778043104 | 15.56° C | 80% | 1012.8 hPa | - | 1.34 m/s, 91° | 0 W/m² | - |
| 1778042802 | 15.56° C | 80% | 1012.8 hPa | - | 0.89 m/s, 206° | 0 W/m² | - |
| 1778042499 | 15.56° C | 79% | 1012.9 hPa | - | 1.34 m/s, 142° | 0 W/m² | - |
| 1778042196 | 15.56° C | 79% | 1012.9 hPa | - | 0.89 m/s, 156° | 0 W/m² | - |
| 1778041894 | 15.56° C | 79% | 1012.9 hPa | - | 0.89 m/s, 190° | 0 W/m² | - |
| 1778041593 | 15.56° C | 79% | 1012.9 hPa | - | 2.24 m/s, 145° | 0 W/m² | - |
| 1778041291 | 16.11° C | 78% | 1012.8 hPa | - | 2.68 m/s, 127° | 0 W/m² | - |
| 1778040989 | 16.11° C | 78% | 1012.9 hPa | - | 3.13 m/s, 138° | 0 W/m² | - |
| 1778040685 | 16.11° C | 78% | 1012.7 hPa | - | 2.24 m/s, 180° | 0 W/m² | - |
| 1778040383 | 16.11° C | 78% | 1012.9 hPa | - | 1.34 m/s, 150° | 0 W/m² | - |
| 1778040080 | 16.11° C | 78% | 1012.7 hPa | - | 0.45 m/s, 217° | 0 W/m² | - |
| 1778039777 | 16.11° C | 77% | 1013.1 hPa | - | 1.79 m/s, 199° | 0 W/m² | - |
| 1778039473 | 16.11° C | 77% | 1013.1 hPa | - | 0.45 m/s, 169° | 0 W/m² | - |
| 1778039171 | 15.56° C | 77% | 1013 hPa | - | 1.79 m/s, 104° | 0 W/m² | - |
| 1778038868 | 16.11° C | 77% | 1012.8 hPa | - | 1.34 m/s, 126° | 0 W/m² | - |
| 1778038565 | 16.11° C | 76% | 1013 hPa | - | 1.79 m/s, 20° | 0 W/m² | - |
| 1778038261 | 16.11° C | 76% | 1012.9 hPa | - | 3.58 m/s, 151° | 0 W/m² | - |
| 1778037959 | 16.11° C | 75% | 1012.9 hPa | - | 4.47 m/s, 169° | 0 W/m² | - |
* Rain since midnight (hover to see other rain measurements)
** Current wind speed in m/s (hover to see current wind gust speed)